DW3648 Weather Reports


Display with metric or nautical units.
time (UTC)temp
F
wind
direction
speed
MPH
gust
MPH
rain 1hr
in
rain 24hr
in
rain mn
in
humidity
%
barometer
mb
20260508110057 69 275 2.0 12.0 0.00 0.00 0.00 45 1006.0
20260508104551 67 174 4.0 17.0 0.00 0.00 0.00 48 1006.1
20260508103046 67 197 2.0 12.0 0.00 0.00 0.00 47 1006.1
20260508101542 66 227 5.0 14.0 0.00 0.00 0.00 47 1006.0
20260508100039 66 78 4.0 13.0 0.00 0.00 0.00 51 1006.0
20260508094538 66 179 4.0 7.0 0.00 0.00 0.00 52 1006.0
20260508093044 66 239 5.0 10.0 0.00 0.00 0.00 51 1005.9
20260508091546 65 163 1.0 5.0 0.00 0.00 0.00 55 1005.9
20260508084555 62 68 2.0 5.0 0.00 0.00 0.00 61 1006.0
20260508083106 59 355 1.0 5.0 0.00 0.00 0.00 66 1006.2
20260508081547 59 340 3.0 7.0 0.00 0.00 0.00 67 1006.3
20260508080045 58 329 3.0 9.0 0.00 0.00 0.00 69 1006.4
20260508074549 58 304 2.0 8.0 0.00 0.00 0.00 69 1006.4
20260508073039 58 279 4.0 10.0 0.00 0.00 0.00 70 1006.3
20260508071539 58 275 2.0 6.0 0.00 0.00 0.00 68 1006.0
20260508070035 57 102 0.0 5.0 0.00 0.00 0.00 72 1005.8
20260508064531 55 346 0.0 2.0 0.00 0.00 0.00 75 1005.6
20260508063029 54 24 1.0 5.0 0.00 0.00 0.00 76 1005.4
20260508061528 53 55 2.0 6.0 0.00 0.00 0.00 79 1005.9
20260508060026 53 92 1.0 3.0 0.00 0.00 0.00 80 1006.0
20260508054526 53 104 0.0 2.0 0.00 0.00 0.00 80 1006.1
20260508053055 53 101 1.0 5.0 0.00 0.00 0.00 78 1005.8
20260508051555 53 83 0.0 1.0 0.00 0.00 0.00 78 1005.9
20260508050024 53 96 0.0 0.0 0.00 0.00 0.00 79 1006.0
20260508044524 53 95 0.0 0.0 0.00 0.00 0.00 79 1006.0
20260508043106 52 95 0.0 1.0 0.00 0.00 0.00 80 1005.6
20260508041552 52 95 1.0 2.0 0.00 0.00 0.00 80 1005.7
20260508040051 52 96 0.0 3.0 0.00 0.00 0.00 80 1005.6
20260508034548 52 88 1.0 5.0 0.00 0.00 0.00 79 1005.5
20260508033048 53 5 0.0 2.0 0.00 0.00 0.00 78 1005.5
20260508031545 53 360 0.0 0.0 0.00 0.00 0.00 77 1005.5
20260508030046 52 91 0.0 1.0 0.00 0.00 0.00 79 1005.5
20260508024542 53 91 0.0 0.0 0.00 0.00 0.00 78 1004.9
20260508023042 53 90 0.0 3.0 0.00 0.00 0.00 78 1005.0
20260508021547 53 90 0.0 0.0 0.00 0.00 0.00 76 1005.0
20260508020036 54 94 1.0 5.0 0.00 0.00 0.00 76 1005.0
20260508014534 54 88 0.0 0.0 0.00 0.00 0.00 75 1005.1
20260508013038 54 88 0.0 0.0 0.00 0.00 0.00 73 1005.1
20260508011532 55 88 0.0 0.0 0.00 0.00 0.00 72 1005.4
20260508010027 55 88 0.0 0.0 0.00 0.00 0.00 71 1005.8
20260508004535 55 88 0.0 5.0 0.00 0.00 0.00 71 1006.1
20260508003025 55 227 2.0 5.0 0.00 0.00 0.00 72 1006.4
20260508001524 56 302 0.0 4.0 0.00 0.00 0.00 73 1006.6
20260508000023 55 252 0.0 0.0 0.00 0.00 0.00 74 1006.6
20260507234520 56 252 0.0 0.0 0.00 0.00 0.00 73 1006.5
20260507233033 56 252 1.0 4.0 0.00 0.00 0.00 72 1006.4
20260507231521 56 262 0.0 2.0 0.00 0.00 0.00 69 1006.3
20260507230019 57 273 1.0 4.0 0.00 0.00 0.00 70 1006.4
20260507224517 57 242 0.0 3.0 0.00 0.00 0.00 69 1006.4
20260507223016 57 242 1.0 4.0 0.00 0.00 0.00 68 1006.5
20260507221518 58 271 0.0 3.0 0.00 0.00 0.00 67 1006.6
20260507220015 59 273 1.0 3.0 0.00 0.00 0.00 66 1006.5
20260507214512 59 273 2.0 5.0 0.00 0.00 0.00 63 1006.6
20260507213012 59 260 3.0 6.0 0.00 0.00 0.00 62 1006.5
20260507211511 60 306 1.0 5.0 0.00 0.00 0.00 63 1006.4
20260507210030 60 286 1.0 7.0 0.00 0.00 0.00 63 1006.2
20260507204507 60 311 1.0 8.0 0.00 0.00 0.00 63 1005.9
20260507203009 60 330 2.0 8.0 0.00 0.00 0.00 62 1005.8
20260507201508 61 247 0.0 3.0 0.00 0.00 0.00 59 1005.4
20260507200006 61 254 0.0 4.0 0.00 0.00 0.00 58 1005.1
20260507194503 61 166 1.0 5.0 0.00 0.00 0.00 57 1004.8
20260507193004 61 115 2.0 6.0 0.00 0.00 0.00 56 1004.6
20260507191503 62 34 2.0 4.0 0.00 0.00 0.00 54 1004.3
20260507190004 63 223 1.0 8.0 0.00 0.00 0.00 54 1004.1
20260507184606 63 86 0.0 7.0 0.00 0.00 0.00 54 1004.0
20260507183059 64 109 1.0 7.0 0.00 0.00 0.00 53 1003.6
20260507181558 65 188 1.0 8.0 0.00 0.00 0.00 52 1003.6
20260507180105 68 190 0.0 4.0 0.00 0.00 0.00 51 1003.4
20260507174556 68 186 4.0 7.0 0.00 0.00 0.00 48 1003.4
20260507173055 68 173 2.0 7.0 0.00 0.00 0.00 46 1003.2
20260507171554 68 180 1.0 10.0 0.00 0.00 0.00 46 1003.2
20260507170054 69 268 1.0 8.0 0.00 0.00 0.00 45 1003.1
20260507164551 70 186 3.0 8.0 0.00 0.00 0.00 44 1003.0
20260507163050 71 286 1.0 9.0 0.00 0.00 0.00 44 1003.0
20260507161549 70 237 0.0 7.0 0.00 0.00 0.00 45 1002.9
20260507160049 70 307 2.0 11.0 0.00 0.00 0.00 45 1002.9
20260507154545 70 275 1.0 5.0 0.00 0.00 0.00 44 1003.0
20260507153045 69 178 3.0 9.0 0.00 0.00 0.00 47 1003.1
20260507151540 69 197 2.0 8.0 0.00 0.00 0.00 47 1003.2
20260507150040 67 259 3.0 14.0 0.00 0.00 0.00 50 1003.4
20260507144536 68 214 6.0 16.0 0.00 0.00 0.00 49 1003.3
20260507143037 68 224 2.0 7.0 0.00 0.00 0.00 48 1003.6
20260507141533 68 287 4.0 12.0 0.00 0.00 0.00 47 1003.7
20260507140032 67 257 3.0 10.0 0.00 0.00 0.00 46 1003.8
20260507134516 67 193 2.0 9.0 0.00 0.00 0.00 46 1003.9
20260507133018 65 247 2.0 9.0 0.00 0.00 0.00 51 1003.9
20260507131519 66 265 2.0 8.0 0.00 0.00 0.00 47 1003.9
20260507130027 68 148 4.0 11.0 0.00 0.00 0.00 44 1004.0
20260507124520 68 276 4.0 11.0 0.00 0.00 0.00 45 1004.1
20260507123013 67 236 2.0 12.0 0.00 0.00 0.00 45 1004.2
20260507121511 67 298 3.0 10.0 0.00 0.00 0.00 43 1004.5
20260507120011 67 204 0.0 5.0 0.00 0.00 0.00 48 1004.8
20260507114502 65 221 0.0 6.0 0.00 0.00 0.00 52 1005.1
20260507113102 64 77 0.0 6.0 0.00 0.00 0.00 53 1005.2
20260507111559 63 100 3.0 10.0 0.00 0.00 0.00 55 1005.2